Location: Anciles
(42.5833°N, 0.5167°E)
Time: 04:33:12
(UTC+00:00)

Cosmos 2360 Rocket - Pass Details

Date: 10 December 2019
Orbit: 833 x 846 km, 71.0° (Epoch: 24 January)

Event Time Altitude Azimuth Distance (km) Brightness Sun altitude
Rises 17:08:06 0° 249° (WSW) 3,390 7.9 -7.9°
Reaches altitude 10° 17:11:16 10° 267° (W) 2,461 5.9 -8.5°
Maximum altitude 17:15:13 19° 311° (NW) 1,904 4.4 -9.2°
Drops below altitude 10° 17:19:12 10° 356° (N) 2,475 4.5 -9.8°
Sets 17:22:25 0° 14° (NNE) 3,415 5.0 -10.4°
